Weather History for Fort Stockton, TX

Change the Weather History Date:

Wednesday, June 20, 2012

  Actual Average Record
Temperature  
Mean Temperature 85 °F -  
Max Temperature 97 °F 92 °F 106 °F (1998)
Min Temperature 73 °F 67 °F 64 °F (1997)
Cooling Degree Days 20    
Growing Degree Days 35 (Base 50)    
Moisture  
Dew Point 59 °F    
Average Humidity 46    
Maximum Humidity 71    
Minimum Humidity 24    
Precipitation  
Precipitation 0.00 in - - ()
Sea Level Pressure  
Sea Level Pressure 29.64 in    
Wind  
Wind Speed 22 mph (SSE)    
Max Wind Speed 25 mph    
Max Gust Speed 40 mph    
Visibility 10 miles    
Events      
Averages and records for this station are not official NWS values.
T = Trace of Precipitation, MM = Missing Value Source: NWS Daily Summary

Daily Weather History Graph

Daily Weather History Graph

Search for Another Location

Airport:

Trip Planner

Search our weather history database for the weather conditions in past years. The results will help you decide how hot, cold, wet, or windy it might be!

Date:

Astronomy

Jun. 20, 2012 Rise Set
Actual Time 6:48 AM CDT 8:58 PM CDT
Civil Twilight 6:20 AM CDT 9:25 PM CDT
Nautical Twilight 5:46 AM CDT 9:59 PM CDT
Astronomical Twilight 5:10 AM CDT 10:36 PM CDT
Moon 7:46 AM CDT (6/20) 9:51 PM CDT (6/20)
Length of Visible Light 15h 04m
Length of Day
14h 09m
New Moon, 1% of the Moon is Illuminated
Jun 20
New Moon
Jun 26
First Quarter
Jul 3
Full
Jul 10
Last Quarter
Jul 18
New

Hourly Weather History & Observations

Time (CDT) Temp. Heat Index Dew Point Humidity Pressure Visibility Wind Dir Wind Speed Gust Speed Precip Events Conditions
12:53 AM 82.0 °F 82.0 °F 57.9 °F 44% 29.59 in 10.0 mi SSE 23.0 mph 40.3 mph N/A   Clear
1:53 AM 79.0 °F - 61.0 °F 54% 29.60 in 10.0 mi SSE 25.3 mph 35.7 mph N/A   Clear
2:53 AM 77.0 °F - 62.1 °F 60% 29.58 in 10.0 mi SSE 23.0 mph 32.2 mph N/A   Clear
3:53 AM 75.9 °F - 63.0 °F 64% 29.58 in 10.0 mi SSE 24.2 mph 34.5 mph N/A   Clear
4:53 AM 75.9 °F - 63.0 °F 64% 29.59 in 10.0 mi SSE 21.9 mph 29.9 mph N/A   Clear
5:53 AM 75.0 °F - 63.0 °F 66% 29.60 in 10.0 mi SSE 20.7 mph 33.4 mph N/A   Clear
6:53 AM 73.0 °F - 63.0 °F 71% 29.64 in 10.0 mi South 17.3 mph 26.5 mph N/A   Clear
7:53 AM 73.9 °F - 63.0 °F 68% 29.65 in 10.0 mi SSE 17.3 mph 25.3 mph N/A   Clear
8:53 AM 75.9 °F - 63.0 °F 64% 29.67 in 10.0 mi SSE 24.2 mph 31.1 mph N/A   Clear
9:53 AM 79.0 °F - 63.0 °F 58% 29.67 in 10.0 mi SSE 21.9 mph 33.4 mph N/A   Clear
10:53 AM 82.9 °F 84.0 °F 63.0 °F 51% 29.67 in 10.0 mi SSE 23.0 mph 29.9 mph N/A   Clear
12:53 PM 91.0 °F 90.9 °F 61.0 °F 36% 29.66 in 10.0 mi SSE 20.7 mph 28.8 mph N/A   Clear
1:53 PM 93.9 °F 93.6 °F 60.1 °F 32% 29.65 in 10.0 mi SSE 18.4 mph 26.5 mph N/A   Clear
2:53 PM 96.1 °F 95.2 °F 57.9 °F 28% 29.64 in 10.0 mi SSE 18.4 mph 27.6 mph N/A   Clear
3:53 PM 97.0 °F 95.7 °F 57.0 °F 26% 29.63 in 10.0 mi SSE 19.6 mph 25.3 mph N/A   Clear
4:53 PM 97.0 °F 95.0 °F 55.0 °F 24% 29.62 in 10.0 mi SE 21.9 mph 27.6 mph N/A   Clear
5:53 PM 96.1 °F 94.1 °F 55.0 °F 25% 29.62 in 10.0 mi SE 21.9 mph 29.9 mph N/A   Clear
6:53 PM 93.0 °F 90.8 °F 54.0 °F 27% 29.63 in 10.0 mi SE 17.3 mph 28.8 mph N/A   Clear
8:53 PM 88.0 °F 85.7 °F 53.1 °F 30% 29.68 in 10.0 mi SE 24.2 mph 34.5 mph N/A   Clear
9:53 PM 84.9 °F 83.3 °F 54.0 °F 34% 29.70 in 10.0 mi SE 18.4 mph 29.9 mph N/A   Clear
10:53 PM 84.0 °F 82.9 °F 55.0 °F 37% 29.72 in 10.0 mi SE 21.9 mph 31.1 mph N/A   Clear
11:53 PM 82.0 °F 81.6 °F 55.9 °F 41% 29.74 in 10.0 mi SE 23.0 mph 32.2 mph N/A   Clear